Weather in Carson City

United States     39°08′54″N   119°45′15″W
temp.,
°C
wind,
m/s
gust,
m/s
humid.,
%
clouds,
%
prec.,
mm/h
press.,
hPa
HPBL,
m
23 may, mon
mon2323:00+12nnw222597 0.0 101716
02:00+10ne22275 0.0 101711
05:00+8n113478 0.0 101710
08:00+12ene11266 0.0 1018417
11:00+16ene222218 0.0 10161586
14:00+20ene341889 0.0 10132201
17:00+21nne4414100 0.0 10112064
20:00+17n451913 0.0 101259
24 may, tue
tue2423:00+14n33230 0.0 101420
02:00+12nnw22300 0.0 101411
05:00+10n22363 0.0 101510
08:00+14ne11315 0.0 1015306
11:00+18ene11245 0.0 10141243
14:00+22ene12185 0.0 10111778
17:00+24ne33185 0.0 10091781
20:00+20nne44245 0.0 101149
25 may, wed
wed2523:00+16nne22260 0.0 101311
02:00+14ene11315 0.0 101311
05:00+12sse11345 0.0 101310
08:00+17s22245 0.0 1014244
11:00+22sse221913 0.0 10121028
14:00+26ssw3618100 0.0 10082828
17:00+26wsw9920100 0.0 10081900
20:00+21wsw3333100 0.0 100939
26 may, thu
thu2623:00+17wsw32395 0.0 101114
02:00+15wsw33425 0.0 101117
05:00+14sw33432 0.0 101115
08:00+19sw37325 0.0 1011686
11:00+24sw101121100 0.0 10092522
14:00+24wsw131421100 0.0 10092385
17:00+21wsw121625100 0.0 10091663
20:00+17wsw41023100 0.0 1011588
27 may, fri
fri2723:00+14wsw3328100 0.0 101456
02:00+12wsw3328100 0.0 101422
05:00+11wsw3330100 0.0 101418
08:00+15sw3631100 0.0 1014575
11:00+18sw91127100 0.0 10131820
14:00+19wsw121323100 0.0 10111772
17:00+17wsw121428100 0.0 10111396
20:00+13wsw81341100 0.0 1013925